• In Austria
  • List of Countries
  • For 7 days
  • Water Temperature
  • Satellite Maps
  • Weather Map
  • News
  • Weather Widgets
  • user-avatar
    Login

    Hourly Weather Vasnevo

    Today, 18 June, Monday

    Time Temperature Precipitation Wind Pressure Humidity
    00:00 +16°C° 0 mm 1 mps 743 mmHg 94%
    01:00 +15°C° 0 mm 1 mps 743 mmHg 94%
    02:00 +15°C° 0 mm 1 mps 743 mmHg 94%
    03:00 +15°C° 0 mm 1 mps 743 mmHg 94%
    04:00 +15°C° 0 mm 1 mps 743 mmHg 94%
    05:00 +15°C° 0 mm 1 mps 743 mmHg 94%
    06:00 +18°C° 0 mm 1 mps 743 mmHg 90%
    07:00 +20°C° 0 mm 1 mps 743 mmHg 85%
    08:00 +21°C° 0 mm 1 mps 743 mmHg 79%
    09:00 +21°C° 0 mm 2 mps 743 mmHg 74%
    10:00 +23°C° 0 mm 2 mps 743 mmHg 68%
    11:00 +25°C° 0 mm 2 mps 743 mmHg 63%
    12:00 +25°C° 0 mm 2 mps 743 mmHg 61%
    13:00 +26°C° 0 mm 2 mps 743 mmHg 58%
    14:00 +26°C° 0 mm 2 mps 743 mmHg 56%
    15:00 +26°C° 0 mm 2 mps 743 mmHg 59%
    16:00 +26°C° 0 mm 2 mps 743 mmHg 62%
    17:00 +26°C° 0 mm 2 mps 742 mmHg 66%
    18:00 +24°C° 0 mm 2 mps 742 mmHg 70%
    19:00 +23°C° 0 mm 2 mps 742 mmHg 74%
    20:00 +20°C° 0 mm 2 mps 742 mmHg 79%
    21:00 +20°C° 0 mm 2 mps 742 mmHg 81%
    22:00 +19°C° 0 mm 2 mps 742 mmHg 83%
    23:00 +18°C° 0 mm 2 mps 742 mmHg 85%

    Tomorrow, 19 June, Tuesday

    Time Temperature Precipitation Wind Pressure Humidity
    00:00 +18°C° 0 mm 2 mps 742 mmHg 88%
    01:00 +17°C° 0 mm 2 mps 742 mmHg 91%
    02:00 +16°C° 0 mm 2 mps 742 mmHg 93%
    03:00 +17°C° 0 mm 2 mps 742 mmHg 93%
    04:00 +17°C° 0 mm 2 mps 743 mmHg 93%
    05:00 +17°C° 0 mm 2 mps 743 mmHg 93%
    06:00 +18°C° 0 mm 2 mps 743 mmHg 89%
    07:00 +20°C° 0 mm 2 mps 743 mmHg 84%
    08:00 +21°C° 0 mm 3 mps 743 mmHg 79%
    09:00 +22°C° 0.1 mm 3 mps 743 mmHg 74%
    10:00 +24°C° 0.1 mm 3 mps 743 mmHg 69%
    11:00 +25°C° 0.1 mm 4 mps 743 mmHg 64%
    12:00 +26°C° 0.1 mm 4 mps 743 mmHg 62%
    13:00 +26°C° 0.1 mm 4 mps 742 mmHg 60%
    14:00 +26°C° 0.1 mm 4 mps 742 mmHg 58%
    15:00 +26°C° 0.1 mm 4 mps 742 mmHg 60%
    16:00 +26°C° 0.1 mm 4 mps 742 mmHg 62%
    17:00 +26°C° 0.1 mm 3 mps 742 mmHg 64%
    18:00 +24°C° 0 mm 3 mps 742 mmHg 69%
    19:00 +21°C° 0 mm 3 mps 742 mmHg 74%
    20:00 +20°C° 0 mm 3 mps 741 mmHg 78%
    21:00 +19°C° 0 mm 3 mps 742 mmHg 80%
    22:00 +18°C° 0 mm 3 mps 742 mmHg 82%
    23:00 +17°C° 0 mm 3 mps 742 mmHg 85%

    Day after tomorrow, 20 June, Wednesday

    Time Temperature Precipitation Wind Pressure Humidity
    00:00 +16°C° 0 mm 3 mps 742 mmHg 87%
    01:00 +14°C° 0 mm 3 mps 743 mmHg 90%
    02:00 +14°C° 0 mm 3 mps 743 mmHg 93%
    03:00 +13°C° 0 mm 3 mps 743 mmHg 93%
    04:00 +13°C° 0 mm 3 mps 743 mmHg 93%
    05:00 +12°C° 0 mm 3 mps 744 mmHg 93%
    06:00 +14°C° 0 mm 3 mps 744 mmHg 87%
    07:00 +16°C° 0 mm 3 mps 744 mmHg 80%
    08:00 +18°C° 0 mm 3 mps 744 mmHg 74%
    09:00 +19°C° 0 mm 4 mps 744 mmHg 69%
    10:00 +20°C° 0 mm 4 mps 744 mmHg 65%
    11:00 +21°C° 0 mm 5 mps 744 mmHg 60%
    12:00 +21°C° 0 mm 5 mps 744 mmHg 58%
    13:00 +22°C° 0 mm 5 mps 744 mmHg 57%
    14:00 +22°C° 0 mm 5 mps 744 mmHg 55%
    15:00 +22°C° 0 mm 5 mps 744 mmHg 58%
    16:00 +22°C° 0 mm 5 mps 744 mmHg 60%
    17:00 +22°C° 0 mm 4 mps 743 mmHg 62%
    18:00 +20°C° 0 mm 4 mps 743 mmHg 67%
    19:00 +19°C° 0 mm 3 mps 743 mmHg 72%
    20:00 +18°C° 0 mm 3 mps 743 mmHg 77%
    21:00 +16°C° 0 mm 3 mps 744 mmHg 79%
    22:00 +14°C° 0 mm 3 mps 744 mmHg 81%
    23:00 +13°C° 0 mm 3 mps 744 mmHg 83%

    21 June, Thursday

    Time Temperature Precipitation Wind Pressure Humidity
    00:00 +12°C° 0 mm 3 mps 744 mmHg 85%
    01:00 +12°C° 0 mm 3 mps 744 mmHg 86%
    02:00 +11°C° 0 mm 3 mps 744 mmHg 88%
    03:00 +11°C° 0 mm 3 mps 744 mmHg 87%
    04:00 +12°C° 0 mm 2 mps 744 mmHg 86%
    05:00 +12°C° 0 mm 2 mps 744 mmHg 85%
    06:00 +13°C° 0 mm 3 mps 744 mmHg 80%
    07:00 +16°C° 0 mm 3 mps 744 mmHg 74%
    08:00 +18°C° 0 mm 4 mps 743 mmHg 69%
    09:00 +20°C° 0 mm 4 mps 743 mmHg 66%
    10:00 +21°C° 0 mm 4 mps 743 mmHg 64%
    11:00 +23°C° 0 mm 4 mps 743 mmHg 61%
    12:00 +25°C° 0 mm 4 mps 742 mmHg 59%
    13:00 +25°C° 0 mm 4 mps 742 mmHg 58%
    14:00 +26°C° 0 mm 4 mps 741 mmHg 56%
    15:00 +26°C° 0 mm 4 mps 741 mmHg 58%
    16:00 +26°C° 0 mm 3 mps 741 mmHg 60%
    17:00 +26°C° 0 mm 3 mps 740 mmHg 62%
    18:00 +25°C° 0 mm 3 mps 740 mmHg 68%
    19:00 +22°C° 0 mm 3 mps 740 mmHg 73%
    20:00 +20°C° 0 mm 3 mps 739 mmHg 79%
    21:00 +20°C° 0 mm 3 mps 739 mmHg 81%
    22:00 +19°C° 0 mm 3 mps 739 mmHg 82%
    23:00 +18°C° 0 mm 3 mps 738 mmHg 83%

    22 June, Friday

    Time Temperature Precipitation Wind Pressure Humidity
    00:00 +18°C° 0 mm 4 mps 738 mmHg 83%
    01:00 +18°C° 0 mm 4 mps 737 mmHg 83%
    02:00 +17°C° 0 mm 5 mps 737 mmHg 83%
    03:00 +19°C° 0 mm 5 mps 736 mmHg 84%
    04:00 +19°C° 0 mm 6 mps 736 mmHg 85%
    05:00 +19°C° 0 mm 6 mps 735 mmHg 86%
    06:00 +20°C° 0.3 mm 7 mps 735 mmHg 86%
    07:00 +21°C° 0.3 mm 7 mps 734 mmHg 86%
    08:00 +22°C° 0.3 mm 7 mps 734 mmHg 86%
    09:00 +23°C° 1.4 mm 8 mps 734 mmHg 85%
    10:00 +23°C° 1.4 mm 8 mps 734 mmHg 84%
    11:00 +24°C° 1.4 mm 8 mps 734 mmHg 84%
    12:00 +23°C° 1.5 mm 7 mps 734 mmHg 84%
    13:00 +22°C° 1.5 mm 6 mps 734 mmHg 84%
    14:00 +22°C° 1.5 mm 6 mps 734 mmHg 84%
    15:00 +21°C° 0.3 mm 5 mps 735 mmHg 83%
    16:00 +20°C° 0.3 mm 4 mps 735 mmHg 81%
    17:00 +19°C° 0.3 mm 3 mps 735 mmHg 80%
    18:00 +18°C° 0.1 mm 3 mps 735 mmHg 79%
    19:00 +17°C° 0.1 mm 3 mps 735 mmHg 79%
    20:00 +16°C° 0.1 mm 2 mps 736 mmHg 78%
    21:00 +16°C° 0 mm 2 mps 736 mmHg 78%
    22:00 +15°C° 0 mm 2 mps 736 mmHg 77%
    23:00 +15°C° 0 mm 2 mps 736 mmHg 77%

    23 June, Saturday

    Time Temperature Precipitation Wind Pressure Humidity
    00:00 +14°C° 0.1 mm 2 mps 736 mmHg 81%
    01:00 +13°C° 0.1 mm 2 mps 736 mmHg 86%
    02:00 +13°C° 0.1 mm 2 mps 737 mmHg 90%
    03:00 +13°C° 0 mm 2 mps 737 mmHg 91%
    04:00 +13°C° 0 mm 2 mps 737 mmHg 91%
    05:00 +12°C° 0 mm 2 mps 737 mmHg 91%
    06:00 +12°C° 0 mm 3 mps 737 mmHg 85%
    07:00 +13°C° 0 mm 3 mps 738 mmHg 79%
    08:00 +14°C° 0 mm 3 mps 738 mmHg 73%
    09:00 +16°C° 0 mm 3 mps 738 mmHg 68%
    10:00 +17°C° 0 mm 4 mps 738 mmHg 64%
    11:00 +18°C° 0 mm 4 mps 738 mmHg 59%
    12:00 +18°C° 0 mm 4 mps 738 mmHg 58%
    13:00 +19°C° 0 mm 4 mps 738 mmHg 56%
    14:00 +20°C° 0 mm 4 mps 738 mmHg 55%
    15:00 +20°C° 0.1 mm 4 mps 738 mmHg 57%
    16:00 +19°C° 0.1 mm 3 mps 738 mmHg 59%
    17:00 +19°C° 0.1 mm 3 mps 738 mmHg 61%
    18:00 +18°C° 0.1 mm 3 mps 738 mmHg 66%
    19:00 +16°C° 0.1 mm 2 mps 738 mmHg 72%
    20:00 +15°C° 0.1 mm 2 mps 738 mmHg 77%
    21:00 +14°C° 0 mm 2 mps 738 mmHg 78%
    22:00 +13°C° 0 mm 2 mps 739 mmHg 80%
    23:00 +12°C° 0 mm 2 mps 739 mmHg 82%
    Show more